GW3806 Weather Reports


time (UTC)temp
C
wind
direction
speed
KPH
gust
KPH
rain 1hr
cm
rain 24hr
cm
rain mn
cm
humidity
%
barometer
mb
20260906233226 22 213 16.1 22.5 0.00 0.00 0.00 34 1015.7
20260906232721 22 208 8.0 27.4 0.00 0.00 0.00 35 1015.6
20260906232216 23 211 11.3 24.1 0.00 0.00 0.00 35 1015.6
20260906231710 24 165 14.5 24.1 0.00 0.00 0.00 36 1015.5
20260906231206 23 210 8.0 24.1 0.00 0.00 0.00 35 1015.5
20260906230704 23 229 12.9 30.6 0.00 0.00 0.00 34 1015.6
20260906230200 23 215 14.5 27.4 0.00 0.00 0.00 34 1015.5
20260906225659 23 217 11.3 32.2 0.00 0.00 0.00 34 1015.5
20260906225155 25 207 11.3 12.9 0.00 0.00 0.00 35 1015.7
20260906224650 24 214 8.0 27.4 0.00 0.00 0.00 33 1015.5
20260906224146 24 224 14.5 20.9 0.00 0.00 0.00 34 1015.4
20260906223643 23 225 12.9 22.5 0.00 0.00 0.00 33 1015.4
20260906223137 23 202 11.3 22.5 0.00 0.00 0.00 33 1015.5
20260906222635 24 180 6.4 27.4 0.00 0.00 0.00 32 1015.4
20260906222134 25 224 12.9 24.1 0.00 0.00 0.00 31 1015.4
20260906221632 25 184 6.4 22.5 0.00 0.00 0.00 31 1015.4
20260906221127 24 243 16.1 24.1 0.00 0.00 0.00 31 1015.4
20260906220623 25 234 9.7 19.3 0.00 0.00 0.00 31 1015.5
20260906220118 25 211 11.3 22.5 0.00 0.00 0.00 32 1015.4
20260906215616 25 156 9.7 20.9 0.00 0.00 0.00 32 1015.1
20260906215115 25 230 14.5 14.5 0.00 0.00 0.00 32 1015.4
20260906214614 24 197 8.0 38.6 0.00 0.00 0.00 31 1015.4
20260906214109 25 201 9.7 17.7 0.00 0.00 0.00 31 1015.6
20260906213608 25 221 11.3 32.2 0.00 0.00 0.00 30 1015.9
20260906213103 24 216 22.5 30.6 0.00 0.00 0.00 30 1015.7
20260906212600 24 157 8.0 19.3 0.00 0.00 0.00 30 1016.0
20260906212056 25 204 16.1 40.2 0.00 0.00 0.00 30 1016.0
20260906211555 24 207 19.3 33.8 0.00 0.00 0.00 31 1015.9
20260906211051 23 209 12.9 24.1 0.00 0.00 0.00 31 1015.9
20260906210546 24 218 14.5 19.3 0.00 0.00 0.00 31 1016.0
20260906210041 25 201 4.8 19.3 0.00 0.00 0.00 29 1016.1
20260906205537 25 204 16.1 27.4 0.00 0.00 0.00 30 1016.2
20260906205033 25 207 12.9 27.4 0.00 0.00 0.00 30 1016.4
20260906204532 26 233 11.3 17.7 0.00 0.00 0.00 29 1016.1
20260906204032 26 163 16.1 24.1 0.00 0.00 0.00 28 1016.1
20260906203532 26 167 9.7 16.1 0.00 0.00 0.00 30 1016.0
20260906203027 24 220 17.7 24.1 0.00 0.00 0.00 30 1016.0
20260906202523 25 213 8.0 20.9 0.00 0.00 0.00 30 1016.0
20260906202019 24 168 8.0 17.7 0.00 0.00 0.00 32 1016.1
20260906201518 24 207 20.9 24.1 0.00 0.00 0.00 32 1016.2
20260906201013 24 161 16.1 22.5 0.00 0.00 0.00 33 1016.4
20260906200508 24 192 6.4 17.7 0.00 0.00 0.00 32 1016.2
20260906200004 23 201 6.4 25.7 0.00 0.00 0.00 32 1016.6
20260906195500 23 241 9.7 12.9 0.00 0.00 0.00 32 1016.5
20260906194956 23 211 9.7 19.3 0.00 0.00 0.00 32 1016.4
20260906194451 23 229 16.1 30.6 0.00 0.00 0.00 31 1016.5
20260906193947 24 184 11.3 32.2 0.00 0.00 0.00 29 1016.5
20260906193447 25 240 14.5 33.8 0.00 0.00 0.00 32 1016.6
20260906192942 25 148 4.8 14.5 0.00 0.00 0.00 30 1016.7
20260906192437 23 212 8.0 14.5 0.00 0.00 0.00 32 1017.0
20260906191937 24 142 11.3 29.0 0.00 0.00 0.00 31 1016.8
20260906191432 25 172 11.3 20.9 0.00 0.00 0.00 31 1017.0
20260906190931 23 147 14.5 24.1 0.00 0.00 0.00 30 1017.1
20260906190430 23 161 20.9 25.7 0.00 0.00 0.00 30 1017.0
20260906185925 23 160 16.1 25.7 0.00 0.00 0.00 29 1017.3
20260906185424 23 161 8.0 22.5 0.00 0.00 0.00 30 1017.2
20260906184923 23 142 19.3 35.4 0.00 0.00 0.00 30 1017.4
20260906184419 24 199 4.8 32.2 0.00 0.00 0.00 31 1017.3
20260906183913 23 214 22.5 29.0 0.00 0.00 0.00 31 1017.4
20260906183410 23 207 14.5 22.5 0.00 0.00 0.00 30 1017.4
20260906182905 23 220 8.0 27.4 0.00 0.00 0.00 32 1017.3
20260906182401 23 212 8.0 27.4 0.00 0.00 0.00 31 1017.4
20260906181856 23 223 27.4 29.0 0.00 0.00 0.00 32 1017.7
20260906181352 23 173 8.0 24.1 0.00 0.00 0.00 31 1017.6
20260906180848 22 199 11.3 25.7 0.00 0.00 0.00 31 1017.7
20260906180342 23 204 16.1 24.1 0.00 0.00 0.00 31 1017.6
20260906175839 23 208 11.3 30.6 0.00 0.00 0.00 33 1017.8
20260906175335 22 206 12.9 32.2 0.00 0.00 0.00 32 1017.8
20260906174833 23 219 19.3 25.7 0.00 0.00 0.00 34 1017.8
20260906174328 23 173 9.7 24.1 0.00 0.00 0.00 33 1018.2
20260906173822 22 210 25.7 30.6 0.00 0.00 0.00 33 1018.1
20260906173318 23 156 3.2 27.4 0.00 0.00 0.00 33 1018.2
20260906172817 22 220 25.7 38.6 0.00 0.00 0.00 31 1018.2
20260906172313 23 206 12.9 25.7 0.00 0.00 0.00 32 1018.2
20260906171808 22 217 9.7 27.4 0.00 0.00 0.00 33 1018.2
20260906171303 23 160 14.5 33.8 0.00 0.00 0.00 32 1018.3
20260906170758 22 163 14.5 22.5 0.00 0.00 0.00 33 1018.4
20260906170254 23 171 6.4 19.3 0.00 0.00 0.00 33 1018.3
20260906165750 22 169 9.7 29.0 0.00 0.00 0.00 35 1018.4
20260906165244 22 241 4.8 22.5 0.00 0.00 0.00 34 1018.4
20260906164743 22 161 14.5 24.1 0.00 0.00 0.00 34 1018.2
20260906164238 22 180 4.8 24.1 0.00 0.00 0.00 33 1018.3
20260906163734 22 217 17.7 27.4 0.00 0.00 0.00 34 1018.4
20260906163231 22 199 14.5 30.6 0.00 0.00 0.00 32 1018.4
20260906162727 22 207 11.3 25.7 0.00 0.00 0.00 33 1018.4
20260906162222 22 214 14.5 30.6 0.00 0.00 0.00 34 1018.5
20260906161717 22 175 11.3 19.3 0.00 0.00 0.00 33 1018.5
20260906161216 22 163 9.7 19.3 0.00 0.00 0.00 34 1018.4
20260906160715 22 211 11.3 16.1 0.00 0.00 0.00 34 1018.4
20260906160214 22 220 12.9 17.7 0.00 0.00 0.00 34 1018.7
20260906155712 22 167 11.3 25.7 0.00 0.00 0.00 34 1018.5
20260906155207 22 175 8.0 24.1 0.00 0.00 0.00 33 1018.7
20260906154702 22 201 4.8 20.9 0.00 0.00 0.00 34 1018.5
20260906154157 22 219 14.5 16.1 0.00 0.00 0.00 33 1018.7
20260906153655 22 211 8.0 12.9 0.00 0.00 0.00 35 1018.5
20260906153150 21 207 14.5 20.9 0.00 0.00 0.00 33 1018.7
20260906152645 21 186 12.9 19.3 0.00 0.00 0.00 33 1018.7
20260906152144 21 230 6.4 9.7 0.00 0.00 0.00 38 1018.5
20260906151639 22 180 4.8 8.0 0.00 0.00 0.00 35 1018.5
20260906151135 21 167 4.8 9.7 0.00 0.00 0.00 35 1018.3
20260906150630 21 176 4.8 11.3 0.00 0.00 0.00 35 1018.3
20260906150126 20 174 4.8 9.7 0.00 0.00 0.00 38 1018.3
20260906145624 21 178 4.8 8.0 0.00 0.00 0.00 36 1018.5
20260906145119 21 171 6.4 11.3 0.00 0.00 0.00 36 1018.5
20260906144614 20 81 0.0 3.2 0.00 0.00 0.00 42 1018.4
20260906144109 19 97 1.6 4.8 0.00 0.00 0.00 44 1018.3
20260906143609 19 93 4.8 8.0 0.00 0.00 0.00 43 1018.7
20260906143106 18 90 3.2 4.8 0.00 0.00 0.00 42 1018.5
20260906142605 18 98 1.6 4.8 0.00 0.00 0.00 46 1018.4
20260906142101 17 18 1.6 6.4 0.00 0.00 0.00 46 1018.4
20260906141559 16 23 1.6 6.4 0.00 0.00 0.00 47 1018.4
20260906141050 17 0 0.0 4.8 0.00 0.00 0.00 46 1018.7
20260906140548 17 3 3.2 6.4 0.00 0.00 0.00 44 1018.3
20260906140043 16 29 1.6 3.2 0.00 0.00 0.00 46 1018.3
20260906135540 14 15 0.0 4.8 0.00 0.00 0.00 49 1018.2
20260906135037 13 3 4.8 6.4 0.00 0.00 0.00 51 1018.2
20260906134536 12 79 4.8 6.4 0.00 0.00 0.00 53 1018.1
20260906134031 12 66 0.0 6.4 0.00 0.00 0.00 54 1018.2
20260906133527 12 94 4.8 4.8 0.00 0.00 0.00 53 1018.1
20260906133023 11 60 0.0 3.2 0.00 0.00 0.00 56 1018.1
20260906132518 11 90 1.6 8.0 0.00 0.00 0.00 54 1018.2
20260906132013 11 356 3.2 4.8 0.00 0.00 0.00 53 1018.2
20260906131508 12 73 4.8 6.4 0.00 0.00 0.00 52 1018.1
20260906131004 11 74 1.6 3.2 0.00 0.00 0.00 54 1018.1
20260906130504 11 38 3.2 9.7 0.00 0.00 0.00 54 1017.9
20260906130004 12 83 4.8 6.4 0.00 0.00 0.00 48 1017.9
20260906125501 12 47 4.8 4.8 0.00 0.00 0.00 49 1018.1
20260906125001 11 23 3.2 4.8 0.00 0.00 0.00 53 1017.9
20260906124456 12 45 4.8 8.0 0.00 0.00 0.00 52 1017.9
20260906123951 13 21 0.0 4.8 0.00 0.00 0.00 48 1018.1
20260906123450 15 90 6.4 11.3 0.00 0.00 0.00 41 1017.7
20260906122945 13 77 4.8 8.0 0.00 0.00 0.00 48 1017.8
20260906122445 14 36 3.2 4.8 0.00 0.00 0.00 46 1017.8
20260906121942 15 111 8.0 9.7 0.00 0.00 0.00 43 1018.1
20260906121437 16 68 0.0 6.4 0.00 0.00 0.00 40 1017.8
20260906120934 16 135 6.4 8.0 0.00 0.00 0.00 38 1017.8
20260906120429 16 135 3.2 4.8 0.00 0.00 0.00 40 1017.8
20260906115926 15 28 4.8 4.8 0.00 0.00 0.00 44 1017.7
20260906115421 15 88 6.4 6.4 0.00 0.00 0.00 45 1017.8
20260906114920 16 20 1.6 8.0 0.00 0.00 0.00 41 1017.8
20260906114415 15 96 3.2 6.4 0.00 0.00 0.00 44 1017.8
20260906113911 13 54 1.6 4.8 0.00 0.00 0.00 49 1017.8
20260906113409 13 81 0.0 1.6 0.00 0.00 0.00 44 1017.7
20260906112905 13 90 4.8 6.4 0.00 0.00 0.00 46 1017.8
20260906112401 12 14 4.8 4.8 0.00 0.00 0.00 49 1017.7
20260906111855 13 53 3.2 4.8 0.00 0.00 0.00 49 1017.8
20260906111349 12 28 4.8 6.4 0.00 0.00 0.00 51 1017.7
20260906110844 13 23 4.8 8.0 0.00 0.00 0.00 49 1017.6
20260906110340 16 300 0.0 3.2 0.00 0.00 0.00 41 1017.4
20260906105839 16 135 4.8 8.0 0.00 0.00 0.00 40 1017.4
20260906105335 15 140 0.0 4.8 0.00 0.00 0.00 45 1017.4
20260906104831 13 90 1.6 4.8 0.00 0.00 0.00 50 1017.6
20260906104329 12 66 3.2 4.8 0.00 0.00 0.00 51 1017.6
20260906103827 12 74 1.6 6.4 0.00 0.00 0.00 54 1017.2
20260906103321 11 90 1.6 4.8 0.00 0.00 0.00 55 1017.3
20260906102817 12 90 0.0 3.2 0.00 0.00 0.00 55 1017.1
20260906102316 12 56 3.2 4.8 0.00 0.00 0.00 53 1017.2
20260906101811 12 90 1.6 4.8 0.00 0.00 0.00 54 1017.2
20260906101306 12 45 4.8 4.8 0.00 0.00 0.00 53 1017.2
20260906100802 13 30 3.2 4.8 0.00 0.00 0.00 49 1017.2
20260906100300 15 29 4.8 4.8 0.00 0.00 0.00 46 1017.1
20260906095755 13 26 1.6 4.8 0.00 0.00 0.00 49 1017.2
20260906095251 13 39 4.8 4.8 0.00 0.00 0.00 50 1017.0
20260906094745 12 45 3.2 4.8 0.00 0.00 0.00 53 1017.0
20260906094240 12 41 3.2 4.8 0.00 0.00 0.00 53 1017.0
20260906093736 12 90 3.2 4.8 0.00 0.00 0.00 53 1016.8
20260906093231 12 32 0.0 4.8 0.00 0.00 0.00 53 1017.0
20260906092727 12 74 0.0 4.8 0.00 0.00 0.00 54 1017.0
20260906092226 12 90 3.2 6.4 0.00 0.00 0.00 54 1017.0
20260906091722 12 85 3.2 3.2 0.00 0.00 0.00 56 1017.1
20260906091213 12 99 3.2 4.8 0.00 0.00 0.00 56 1017.1
20260906090709 11 353 0.0 3.2 0.00 0.00 0.00 56 1017.0
20260906090208 11 83 1.6 4.8 0.00 0.00 0.00 57 1017.1
20260906085707 11 90 0.0 6.4 0.00 0.00 0.00 56 1017.1
20260906085206 10 12 0.0 1.6 0.00 0.00 0.00 60 1017.2
20260906084701 10 81 0.0 6.4 0.00 0.00 0.00 60 1017.1
20260906084200 10 83 0.0 4.8 0.00 0.00 0.00 60 1017.1
20260906083655 11 5 0.0 4.8 0.00 0.00 0.00 59 1017.1
20260906083151 11 90 3.2 4.8 0.00 0.00 0.00 59 1017.1
20260906082646 11 270 0.0 3.2 0.00 0.00 0.00 57 1017.3
20260906082141 12 107 3.2 9.7 0.00 0.00 0.00 56 1017.4
20260906081637 12 113 0.0 8.0 0.00 0.00 0.00 55 1017.2
20260906081132 12 97 6.4 8.0 0.00 0.00 0.00 56 1017.2
20260906080629 12 97 4.8 12.9 0.00 0.00 0.00 55 1017.3
20260906080125 12 96 4.8 11.3 0.00 0.00 0.00 55 1017.3
20260906075624 12 118 4.8 9.7 0.00 0.00 0.00 56 1017.3
20260906075119 12 79 4.8 4.8 0.00 0.00 0.00 55 1017.4
20260906074614 12 90 3.2 4.8 0.00 0.00 0.00 54 1017.4
20260906074108 12 102 3.2 11.3 0.00 0.00 0.00 54 1017.4
20260906073608 12 41 0.0 8.0 0.00 0.00 0.00 54 1017.4
20260906073103 12 97 6.4 9.7 0.00 0.00 0.00 53 1017.4
20260906072558 13 85 3.2 12.9 0.00 0.00 0.00 52 1017.6
20260906072054 12 74 9.7 14.5 0.00 0.00 0.00 52 1017.7
20260906071551 13 116 8.0 12.9 0.00 0.00 0.00 52 1017.8
20260906071045 12 102 8.0 12.9 0.00 0.00 0.00 53 1017.7
20260906070542 12 88 9.7 11.3 0.00 0.00 0.00 53 1017.8
20260906070037 12 93 6.4 9.7 0.00 0.00 0.00 53 1017.8
20260906065537 12 103 6.4 14.5 0.00 0.00 0.00 53 1017.9
20260906065032 13 84 3.2 16.1 0.00 0.00 0.00 51 1017.8
20260906064528 13 75 4.8 19.3 0.00 0.00 0.00 51 1018.1
20260906064022 13 83 6.4 12.9 0.00 0.00 0.00 51 1018.2
20260906063518 12 42 4.8 9.7 0.00 0.00 0.00 51 1018.1
20260906063014 12 63 6.4 12.9 0.00 0.00 0.00 52 1018.2
20260906062508 12 117 14.5 14.5 0.00 0.00 0.00 52 1018.3
20260906061957 13 80 6.4 14.5 0.00 0.00 0.00 52 1017.9
20260906061454 12 73 8.0 12.9 0.00 0.00 0.00 54 1018.1
20260906060953 12 90 4.8 14.5 0.00 0.00 0.00 54 1018.3
20260906060450 11 92 11.3 16.1 0.00 0.00 0.00 56 1018.4
20260906055946 12 49 8.0 12.9 0.00 0.00 0.00 55 1018.5
20260906055436 12 105 3.2 11.3 0.00 0.00 0.00 54 1018.5
20260906054931 12 111 0.0 6.4 0.00 0.00 0.00 54 1018.4
20260906054426 12 7 1.6 11.3 0.00 0.00 0.00 54 1018.8
20260906053922 12 86 4.8 8.0 0.00 0.00 0.00 55 1018.8
20260906053418 12 54 1.6 6.4 0.00 0.00 0.00 55 1018.8
20260906052913 12 106 1.6 4.8 0.00 0.00 0.00 55 1018.8
20260906052409 12 113 8.0 8.0 0.00 0.00 0.00 54 1018.9
20260906051906 12 26 3.2 8.0 0.00 0.00 0.00 54 1019.0
20260906051406 12 120 0.0 6.4 0.00 0.00 0.00 56 1019.0
20260906050902 12 105 0.0 4.8 0.00 0.00 0.00 57 1018.8
20260906050356 12 20 1.6 4.8 0.00 0.00 0.00 57 1019.1
20260906045855 12 132 0.0 8.0 0.00 0.00 0.00 57 1019.0
20260906045355 12 105 4.8 4.8 0.00 0.00 0.00 57 1019.0
20260906044851 12 96 4.8 8.0 0.00 0.00 0.00 57 1019.0
20260906044351 12 100 6.4 6.4 0.00 0.00 0.00 59 1019.0
20260906043847 12 99 9.7 9.7 0.00 0.00 0.00 59 1019.1
20260906043343 12 0 0.0 8.0 0.00 0.00 0.00 59 1019.1
20260906042838 12 57 4.8 8.0 0.00 0.00 0.00 60 1019.3
20260906042337 12 90 0.0 8.0 0.00 0.00 0.00 61 1019.1
20260906041833 12 74 4.8 8.0 0.00 0.00 0.00 61 1019.0
20260906041328 12 90 0.0 9.7 0.00 0.00 0.00 62 1019.1
20260906040828 12 96 6.4 9.7 0.00 0.00 0.00 62 1019.3
20260906040329 12 63 6.4 8.0 0.00 0.00 0.00 63 1019.1
20260906035824 12 98 3.2 8.0 0.00 0.00 0.00 63 1019.4
20260906035319 12 99 3.2 6.4 0.00 0.00 0.00 64 1019.3
20260906034815 12 90 11.3 12.9 0.00 0.00 0.00 64 1019.1
20260906034314 12 41 0.0 8.0 0.00 0.00 0.00 64 1019.1
20260906033811 12 23 4.8 6.4 0.00 0.00 0.00 63 1019.1
20260906033309 13 30 3.2 11.3 0.00 0.00 0.00 64 1019.0
20260906032806 13 80 4.8 16.1 0.00 0.00 0.00 63 1019.1
20260906032305 13 72 8.0 16.1 0.00 0.00 0.00 65 1019.1
20260906031757 12 49 3.2 11.3 0.00 0.00 0.00 66 1019.0
20260906031253 13 103 3.2 8.0 0.00 0.00 0.00 65 1018.9
20260906030752 13 5 3.2 6.4 0.00 0.00 0.00 64 1018.9
20260906030248 13 66 1.6 4.8 0.00 0.00 0.00 64 1018.8
20260906025747 13 90 4.8 9.7 0.00 0.00 0.00 64 1018.8
20260906025241 14 98 9.7 12.9 0.00 0.00 0.00 64 1018.8
20260906024740 13 73 0.0 14.5 0.00 0.00 0.00 64 1018.8
20260906024239 13 180 1.6 6.4 0.00 0.00 0.00 66 1018.5
20260906023735 13 94 0.0 3.2 0.00 0.00 0.00 66 1018.5
20260906023230 13 352 0.0 3.2 0.00 0.00 0.00 66 1018.4
20260906022726 14 82 3.2 9.7 0.00 0.00 0.00 66 1018.4
20260906022221 14 67 3.2 8.0 0.00 0.00 0.00 66 1018.4
20260906021717 14 90 4.8 8.0 0.00 0.00 0.00 66 1018.5
20260906021215 14 353 0.0 1.6 0.00 0.00 0.00 65 1018.5
20260906020711 15 0 1.6 3.2 0.00 0.00 0.00 66 1018.5
20260906020205 14 90 0.0 3.2 0.00 0.00 0.00 67 1018.3
20260906015700 15 90 4.8 6.4 0.00 0.00 0.00 66 1018.4
20260906015158 16 0 0.0 0.0 0.00 0.00 0.00 59 1018.4
20260906014652 17 349 3.2 3.2 0.00 0.00 0.00 56 1018.2
20260906014148 18 90 0.0 0.0 0.00 0.00 0.00 56 1018.4
20260906013644 18 98 0.0 4.8 0.00 0.00 0.00 53 1018.5
20260906013139 19 246 0.0 3.2 0.00 0.00 0.00 49 1018.7
20260906012639 20 278 0.0 1.6 0.00 0.00 0.00 47 1018.4
20260906012134 21 270 3.2 4.8 0.00 0.00 0.00 46 1018.5
20260906011630 21 253 0.0 3.2 0.00 0.00 0.00 45 1018.5
20260906011124 22 301 3.2 6.4 0.00 0.00 0.00 43 1018.5
20260906010619 22 246 0.0 3.2 0.00 0.00 0.00 43 1018.4
20260906010116 22 303 4.8 6.4 0.00 0.00 0.00 43 1018.4
20260906005609 22 276 3.2 6.4 0.00 0.00 0.00 43 1018.4
20260906005109 22 270 0.0 8.0 0.00 0.00 0.00 43 1018.3
20260906004608 23 250 3.2 4.8 0.00 0.00 0.00 41 1018.3
20260906004103 23 264 0.0 4.8 0.00 0.00 0.00 41 1018.3
20260906003558 23 327 3.2 9.7 0.00 0.00 0.00 42 1018.4
20260906003054 23 255 0.0 9.7 0.00 0.00 0.00 42 1018.2
20260906002549 23 342 0.0 9.7 0.00 0.00 0.00 42 1018.2
20260906002043 23 270 3.2 8.0 0.00 0.00 0.00 40 1018.3
20260906001538 23 0 3.2 6.4 0.00 0.00 0.00 41 1017.9
20260906001032 23 275 3.2 8.0 0.00 0.00 0.00 40 1018.1
20260906000529 23 268 6.4 11.3 0.00 0.00 0.00 39 1018.2
20260906000024 23 276 1.6 12.9 0.00 0.00 0.00 41 1018.1
20260905235517 24 240 4.8 8.0 0.00 0.00 0.00 41 1018.2
20260905235013 24 336 3.2 12.9 0.00 0.00 0.00 42 1018.2
20260905234509 23 258 3.2 14.5 0.00 0.00 0.00 38 1017.9
20260905234003 25 263 6.4 8.0 0.00 0.00 0.00 39 1017.9